Home   Weather   Yokohama   Past weeks

Flag for Japan Past Weather in Yokohama, Japan — Yesterday and Last 2 Weeks

Now
79 °F

Clear.


Feels Like: 81 °F
Forecast: 74 / 88 °F
Wind: 15 mph from Southwest

Location: Tokyo International Airport

Current Time: Sep 1, 2016 at 1:20:26 AM

Latest Report: Sep 1, 2016 at 1:00 AM


Visibility: 10 mi

Pressure: 29.65 "Hg

Humidity: 70%

Dew Point: 68 °F

Location of YokohamaLocation

Past Weather in Yokohama — Graph

°F

Yokohama Temperature Yesterday

Maximum temperature yesterday: 88 °F (at 9:49 AM)
Minimum temperature yesterday: 77 °F (at 12:00 AM)
Average temperature yesterday: 82 °F

High & Low Weather Summary for the Past Weeks

 TemperatureHumidityPressure
High93 °F (Aug 17, 11:00 AM)100% (Aug 17, 12:30 AM)29.83 "Hg (Aug 17, 12:30 AM)
Low72 °F (Aug 27, 10:00 PM)52% (Aug 31, 10:00 AM)28.97 "Hg (Aug 30, 11:30 AM)
Average81 °F84%29.58 "Hg
* Reported Aug 17 12:00 AM — Sep 1 12:00 AM, Yokohama, Weather by CustomWeather, © 2016

Note: Actual official high and low records may vary slightly from our data, if they occured in-between our weather recording intervals... More about our weather records

Advertising

Yokohama Weather History for the Previous 24 Hours

Scroll right to see more
 ConditionsComfort  
Time TempWeatherWind HumidityBarometerVisibility
12:00 AM
Thu, Sep 1
79 °FClear.17 mph70%29.65 "Hg10 mi
11:30 PM
Wed, Aug 31
79 °FClear.17 mph70%29.65 "Hg10 mi
11:00 PM81 °FClear.15 mph66%29.65 "Hg10 mi
10:30 PM81 °FClear.15 mph66%29.65 "Hg10 mi
10:00 PM81 °FClear.14 mph66%29.65 "Hg10 mi
9:30 PM81 °FClear.16 mph66%29.65 "Hg10 mi
9:00 PM81 °FClear.14 mph62%29.65 "Hg10 mi
8:30 PM81 °FPassing clouds.15 mph66%29.65 "HgN/A
8:00 PM81 °FClear.15 mph66%29.65 "Hg10 mi
7:30 PM81 °FClear.15 mph66%29.62 "Hg10 mi
7:00 PM81 °FPassing clouds.16 mph70%29.62 "HgN/A
6:30 PM81 °FPassing clouds.20 mph70%29.59 "HgN/A
6:00 PM82 °FPassing clouds.18 mph66%29.59 "HgN/A
5:30 PM82 °FPassing clouds.20 mph62%29.56 "HgN/A
5:00 PM84 °FPassing clouds.24 mph62%29.56 "HgN/A
4:30 PM84 °FPassing clouds.25 mph62%29.56 "HgN/A
4:00 PM86 °FPassing clouds.26 mph55%29.56 "HgN/A
3:30 PM86 °FPassing clouds.28 mph55%29.53 "HgN/A
3:00 PM86 °FPassing clouds.28 mph55%29.53 "HgN/A
2:30 PM88 °FPassing clouds.29 mph55%29.53 "HgN/A
2:00 PM86 °FPassing clouds.28 mph62%29.53 "HgN/A
1:30 PM88 °FPassing clouds.25 mph59%29.53 "HgN/A
1:00 PM88 °FPassing clouds.24 mph59%29.53 "HgN/A
12:30 PM88 °FPassing clouds.26 mph59%29.53 "HgN/A
12:00 PM88 °FPassing clouds.24 mph59%29.53 "HgN/A
11:30 AM86 °FPassing clouds.23 mph59%29.53 "HgN/A
11:00 AM88 °FPassing clouds.18 mph59%29.53 "HgN/A
10:30 AM86 °FPassing clouds.17 mph59%29.53 "HgN/A
10:00 AM86 °FPassing clouds.21 mph52%29.53 "HgN/A
9:49 AM88 °FPassing clouds.17 mph55%29.53 "HgN/A
9:30 AM86 °FPassing clouds.20 mph55%29.53 "HgN/A
9:00 AM84 °FPassing clouds.18 mph62%29.50 "HgN/A
8:30 AM84 °FPassing clouds.20 mph62%29.50 "HgN/A
8:00 AM82 °FPassing clouds.16 mph70%29.50 "HgN/A
7:30 AM82 °FPassing clouds.15 mph66%29.47 "HgN/A
7:00 AM81 °FPassing clouds.13 mph70%29.47 "HgN/A
6:30 AM79 °FPassing clouds.13 mph70%29.47 "HgN/A
6:00 AM79 °FScattered clouds.13 mph65%29.47 "HgN/A
5:30 AM77 °FPassing clouds.15 mph69%29.45 "HgN/A
5:00 AM77 °FPassing clouds.17 mph69%29.45 "HgN/A
4:30 AM77 °FPassing clouds.21 mph65%29.42 "HgN/A
4:00 AM77 °FPassing clouds.16 mph65%29.42 "HgN/A
3:30 AM77 °FPassing clouds.14 mph65%29.39 "HgN/A
3:00 AM77 °FPassing clouds.16 mph61%29.39 "HgN/A
2:30 AM77 °FPassing clouds.21 mph57%29.39 "HgN/A
2:00 AM79 °FPassing clouds.24 mph54%29.36 "HgN/A
1:30 AM79 °FPassing clouds.21 mph54%29.33 "HgN/A
1:02 AM77 °FPassing clouds.20 mph54%29.36 "HgN/A
1:00 AM79 °FPassing clouds.22 mph54%29.36 "HgN/A
Weather by CustomWeather, © 2016

See weather overviewHow to use our weather pages